Starlink 32158

operational
NORAD ID: 60267 Int'l Des: 2024-131 Owner: SPXS Country: US Constellation: starlink
LEOCIRCULAR

About Starlink 32158

Description loading...

Live Position

Loading 3D Globe...

Upcoming Passes

Altitude History

Altitude vs Time

uPlot chart will show altitude changes over time

Two-Line Element Set

1 60267U 24131N 25350.23577778 .00003093 00000-0 11652-3 0 9996
2 60267 53.1603 79.9085 0001341 98.2299 261.8854 15.30200824 78843
Epoch: Dec 16, 2025 • Age: 18 hours

Current Status

Altitude 487.9 km
Velocity 7.62 km/s
Sub-Earth Point -37.38°S, 153.27°W
Launch Date Jul 27, 2024
Age 1.3 years
Type internet

Technical Details

Classification Payload
Mass 730.00 kg
Dry Mass 700.00 kg
Total Mass 730.00 kg
Length 0.30 m
Diameter 4.10 m
Span 29.00 m
Shape Box + pan
Manufacturer SPXS
Bus Type Starlink V2M
Phase Status In Orbit
Owner/State SPXS/US

Large Constellations

Loading constellations...